1483268400.64,53994,10.94,73534.5,-1.67,-39.85,-40.47,0,*52
1483268401.88,53995,10.94,73528.0,-1.67,-40.09,-40.65,0,*59
1483268403.11,53996,10.94,73536.0,-1.67,-40.09,-40.65,0,*5A
1483268404.38,53997,10.94,73544.0,-1.65,-39.79,-40.47,0,*50
1483268405.62,53998,10.94,73544.8,-1.67,-39.85,-40.21,0,*5E
1483268406.86,53999,10.94,73544.0,-1.67,-39.71,-40.47,0,*54
1483268408.15,54000,10.94,73540.3,-1.69,-39.71,-40.29,0,*5C
1483268409.39,54001,10.94,73538.0,-1.71,-39.71,-40.15,0,*5B
1483268410.66,54002,10.94,73538.0,-1.71,-39.71,-40.29,0,*57
1483268411.89,54003,10.94,73540.3,-1.71,-39.71,-40.35,0,*5B
1483268413.14,54004,10.94,73540.8,-1.71,-39.71,-40.35,0,*5C
1483268414.4,54005,10.94,73540.8,-1.71,-39.71,-40.29,0,*50
1483268415.64,54006,10.94,73540.5,-1.71,-39.97,-40.53,0,*56
1483268416.85,54007,10.94,73538.0,-1.71,-39.91,-40.35,0,*51
1483268418.12,54008,10.94,73542.5,-1.75,-39.79,-40.21,0,*59
1483268419.37,54009,10.94,73538.8,-1.75,-39.59,-40.15,0,*5D
1483268420.64,54010,10.94,73540.3,-1.75,-39.79,-40.21,0,*50
1483268421.9,54011,10.94,73544.3,-1.75,-39.59,-40.21,0,*53
1483268423.18,54012,10.94,73546.0,-1.77,-39.85,-40.41,0,*55
1483268424.43,54013,10.94,73544.8,-1.77,-39.97,-40.47,0,*51
1483268425.7,54014,10.94,73538.3,-1.77,-40.35,-40.85,0,*5E
1483268426.93,54015,10.94,73540.5,-1.81,-40.35,-40.97,0,*55
1483268428.17,54016,10.94,73546.5,-1.81,-40.09,-40.73,0,*53
1483268429.4,54017,10.94,73544.3,-1.81,-40.09,-40.73,0,*52
1483268430.66,54018,10.94,73540.3,-1.81,-40.09,-40.59,0,*55
1483268431.93,54019,10.94,73540.5,-1.83,-39.71,-40.35,0,*5D
1483268433.22,54020,10.94,73542.5,-1.83,-39.71,-40.29,0,*5A
1483268434.51,54021,10.94,73544.8,-1.83,-39.59,-40.29,0,*51
1483268435.77,54022,10.94,73544.5,-1.85,-39.79,-40.21,0,*5E
1483268437.06,54023,10.94,73544.0,-1.83,-39.71,-40.29,0,*59
1483268438.32,54024,10.94,73536.5,-1.85,-39.97,-40.59,0,*57
1483268439.55,54025,10.94,73534.3,-1.85,-40.03,-40.59,0,*55
1483268440.78,54026,10.94,73540.8,-1.85,-39.65,-40.41,0,*51
1483268442.03,54027,10.94,73544.8,-1.85,-40.21,-40.79,0,*55
1483268443.26,54028,10.94,73546.3,-1.89,-40.29,-40.65,0,*53
1483268444.48,54029,10.94,73544.8,-1.87,-40.53,-41.03,0,*50
1483268445.69,54030,10.94,73542.5,-1.89,-40.47,-41.03,0,*53
1483268446.96,54031,10.94,73534.8,-1.89,-40.41,-40.85,0,*5B
1483268448.16,54032,10.94,73530.5,-1.89,-40.03,-40.47,0,*50
1483268449.36,54033,10.94,73534.5,-1.89,-39.85,-40.47,0,*51
1483268450.6,54034,10.94,73534.5,-1.91,-40.47,-40.91,0,*54
1483268451.85,54035,10.94,73536.0,-1.91,-39.97,-40.47,0,*5D
1483268453.14,54036,10.94,73540.5,-1.91,-40.09,-40.79,0,*5A
1483268454.38,54037,10.94,73538.8,-1.93,-40.29,-40.79,0,*5B
1483268455.61,54038,10.94,73528.3,-1.93,-40.29,-40.73,0,*5E
1483268456.82,54039,10.94,73532.0,-1.93,-39.91,-40.47,0,*55
1483268458.08,54040,10.94,73526.3,-1.95,-39.79,-40.35,0,*5E
1483268459.35,54041,10.94,73522.3,-1.95,-39.79,-40.53,0,*5F
1483268460.62,54042,10.94,73526.8,-1.93,-39.59,-40.09,0,*57
1483268461.91,54043,10.94,73524.3,-1.95,-39.79,-40.21,0,*58
1483268463.2,54044,10.94,73532.8,-1.95,-39.59,-40.21,0,*5D
1483268464.46,54045,10.94,73534.3,-1.95,-39.79,-40.35,0,*5B
1483268465.72,54046,10.94,73532.8,-1.97,-39.59,-40.21,0,*5D
1483268466.97,54047,10.94,73536.0,-1.97,-39.53,-39.97,0,*55
1483268468.22,54048,10.94,73534.0,-1.97,-39.41,-39.97,0,*59
1483268469.49,54049,10.94,73540.5,-1.95,-39.59,-40.15,0,*57
1483268470.72,54050,10.94,73544.3,-1.97,-39.85,-40.41,0,*5D
1483268471.96,54051,10.94,73542.3,-1.97,-40.15,-40.59,0,*52
1483268473.16,54052,10.94,73548.0,-1.97,-40.03,-40.73,0,*5E
1483268474.44,54053,10.94,73550.3,-1.99,-40.21,-40.79,0,*5B
1483268475.64,54054,10.94,73546.8,-1.97,-40.35,-40.73,0,*5D
1483268476.87,54055,10.94,73546.8,-1.99,-39.85,-40.47,0,*50
1483268478.13,54056,10.94,73540.0,-1.99,-39.65,-40.09,0,*57
1483268479.37,54057,10.94,73530.3,-2.01,-39.59,-39.91,0,*54
1483268480.64,54058,10.94,73530.3,-1.99,-39.59,-39.91,0,*59
1483268481.89,54059,10.94,73538.0,-2.01,-39.29,-39.71,0,*53
1483268483.14,54060,10.94,73532.5,-1.99,-39.29,-39.85,0,*50
1483268484.43,54061,10.94,73544.5,-1.99,-39.23,-39.71,0,*50
1483268485.68,54062,10.94,73544.5,-2.01,-39.29,-39.71,0,*5B
1483268486.92,54063,10.94,73546.0,-2.01,-39.59,-39.91,0,*53
1483268488.2,54064,10.94,73542.8,-1.99,-39.29,-39.71,0,*5F
1483268489.48,54065,10.94,73538.5,-1.99,-39.03,-39.59,0,*5C
1483268490.76,54066,10.94,73542.3,-1.99,-39.03,-39.41,0,*56
1483268492.0,54067,10.94,73542.5,-2.01,-38.91,-39.41,0,*5F
1483268493.23,54068,10.94,73542.8,-2.01,-39.03,-39.47,0,*5C
1483268494.46,54069,10.94,73534.0,-2.01,-39.41,-39.91,0,*50
1483268495.72,54070,10.94,73526.0,-1.99,-39.41,-39.91,0,*5A
1483268496.95,54071,10.94,73522.3,-2.01,-39.29,-39.65,0,*5C
1483268498.19,54072,10.94,73518.5,-1.99,-39.09,-39.65,0,*5F
1483268499.44,54073,10.94,73530.3,-2.01,-38.91,-39.59,0,*53
1483268500.7,54074,10.94,73528.5,-1.99,-38.85,-39.29,0,*54
1483268501.95,54075,10.94,73536.3,-1.99,-38.73,-39.29,0,*5C
1483268503.2,54076,10.94,73542.5,-1.99,-38.73,-39.41,0,*51
1483268504.45,54077,10.94,73542.3,-1.99,-38.67,-39.09,0,*59
1483268505.68,54078,10.94,73542.3,-1.97,-38.61,-39.15,0,*53
1483268506.9,54079,10.94,73534.5,-1.97,-38.97,-39.23,0,*5E
1483268508.13,54080,10.94,73526.0,-1.97,-39.03,-39.65,0,*56
1483268509.35,54081,10.94,73536.3,-1.97,-38.79,-39.35,0,*5E
1483268510.58,54082,10.94,73536.0,-1.97,-38.61,-39.15,0,*56
1483268511.83,54083,10.94,73536.8,-1.97,-38.67,-39.15,0,*51
1483268513.06,54084,10.94,73540.5,-1.97,-38.49,-38.97,0,*51
1483268514.31,54085,10.94,73536.0,-1.95,-38.61,-39.03,0,*54
1483268515.57,54086,10.94,73532.8,-1.95,-38.61,-39.15,0,*50
1483268516.83,54087,10.94,73534.0,-1.95,-38.49,-38.85,0,*53
1483268518.05,54088,10.94,73536.0,-1.97,-38.35,-38.79,0,*56
1483268519.31,54089,10.94,73530.3,-1.95,-38.35,-38.67,0,*5A
1483268520.51,54090,10.94,73530.3,-1.93,-38.43,-38.85,0,*59
1483268521.74,54091,10.94,73526.5,-1.93,-38.29,-38.61,0,*5E
1483268522.95,54092,10.94,73530.8,-1.93,-38.17,-38.61,0,*50
1483268524.16,54093,10.94,73536.5,-1.93,-38.17,-38.55,0,*56
1483268525.38,54094,10.94,73534.0,-1.93,-38.29,-38.73,0,*58
1483268526.61,54095,10.94,73534.0,-1.91,-38.17,-38.61,0,*55
1483268527.87,54096,10.94,73534.8,-1.91,-38.29,-38.61,0,*5B
1483268529.13,54097,10.94,73534.8,-1.91,-38.11,-38.55,0,*56
1483268530.36,54098,10.94,73536.0,-1.91,-38.17,-38.61,0,*58
1483268531.62,54099,10.94,73532.0,-1.89,-38.11,-38.49,0,*5C
1483268532.87,54100,10.94,73540.0,-1.91,-38.11,-38.55,0,*59
1483268534.13,54101,10.94,73540.3,-1.87,-38.05,-38.29,0,*51
1483268535.36,54102,10.94,73538.5,-1.89,-38.11,-38.55,0,*52
1483268536.59,54103,10.94,73532.0,-1.89,-38.05,-38.49,0,*5B
1483268537.85,54104,10.94,73532.8,-1.87,-38.17,-38.49,0,*51
1483268539.08,54105,10.94,73536.0,-1.85,-37.87,-38.29,0,*52
1483268540.31,54106,10.94,73536.8,-1.87,-38.17,-38.61,0,*59
1483268541.52,54107,10.94,73532.8,-1.85,-38.05,-38.61,0,*59
1483268542.77,54108,10.94,73532.3,-1.85,-37.99,-38.29,0,*50
1483268544.01,54109,10.94,73534.3,-1.85,-37.93,-38.35,0,*56
1483268545.27,54110,10.94,73536.8,-1.83,-37.75,-38.23,0,*57
1483268546.53,54111,10.94,73536.8,-1.83,-37.99,-38.43,0,*52
1483268547.79,54112,10.94,73532.5,-1.83,-38.43,-38.91,0,*56
1483268549.02,54113,10.94,73528.3,-1.83,-38.17,-38.43,0,*59
1483268550.31,54114,10.94,73532.3,-1.83,-37.93,-38.23,0,*5B
1483268551.54,54115,10.94,73534.3,-1.81,-37.93,-38.17,0,*5F
1483268552.74,54116,10.94,73532.8,-1.81,-37.75,-38.17,0,*54
1483268554.04,54117,10.94,73524.3,-1.77,-37.81,-38.23,0,*50
1483268555.28,54118,10.94,73530.3,-1.81,-37.81,-38.17,0,*51
1483268556.54,54119,10.94,73530.3,-1.75,-37.51,-37.99,0,*5F
1483268557.79,54120,10.94,73528.0,-1.77,-37.87,-38.43,0,*54
1483268559.08,54121,10.94,73532.0,-1.77,-37.69,-38.23,0,*53
1483268560.33,54122,10.94,73540.3,-1.75,-37.69,-38.11,0,*53
1483268561.6,54123,10.94,73538.8,-1.73,-37.81,-38.35,0,*54
1483268562.86,54124,10.94,73536.3,-1.73,-37.99,-38.43,0,*5B
1483268564.11,54125,10.94,73532.5,-1.75,-37.87,-38.23,0,*55
1483268565.33,54126,10.94,73532.8,-1.73,-37.75,-38.05,0,*59
1483268566.59,54127,10.94,73534.3,-1.73,-37.57,-37.81,0,*5B
1483268567.87,54128,10.94,73536.8,-1.73,-37.39,-37.81,0,*5C
1483268569.13,54129,10.94,73532.5,-1.73,-37.45,-37.93,0,*55
1483268570.36,54130,10.94,73524.3,-1.71,-37.57,-37.99,0,*56
1483268571.63,54131,10.94,73528.3,-1.71,-37.39,-37.81,0,*56
1483268572.87,54132,10.94,73528.0,-1.71,-37.57,-37.99,0,*54
1483268574.13,54133,10.94,73526.8,-1.69,-37.51,-37.87,0,*55
1483268575.39,54134,10.94,73530.0,-1.69,-37.51,-37.87,0,*52
1483268576.65,54135,10.94,73532.0,-1.69,-37.51,-37.75,0,*5E
1483268577.88,54136,10.94,73532.8,-1.69,-37.33,-37.75,0,*59
1483268579.15,54137,10.94,73532.8,-1.67,-37.21,-37.69,0,*58
1483268580.41,54138,10.94,73530.8,-1.65,-36.97,-37.51,0,*52
1483268581.65,54139,10.94,73528.3,-1.67,-37.03,-37.39,0,*53
1483268582.91,54140,10.94,73530.5,-1.65,-36.91,-37.27,0,*5A
1483268584.14,54141,10.94,73530.3,-1.63,-37.75,-37.99,0,*53
1483268585.38,54142,10.94,73528.5,-1.63,-37.57,-37.81,0,*59
1483268586.62,54143,10.94,73534.3,-1.63,-37.09,-37.57,0,*58
1483268587.83,54144,10.94,73536.5,-1.63,-36.85,-37.27,0,*5D
1483268589.07,54145,10.94,73536.3,-1.61,-36.85,-37.27,0,*5E
1483268590.33,54146,10.94,73534.8,-1.61,-36.91,-37.45,0,*5C
1483268591.56,54147,10.94,73532.0,-1.61,-37.03,-37.45,0,*57
1483268592.8,54148,10.94,73534.5,-1.59,-36.85,-37.21,0,*5E
1483268594.03,54149,10.94,73536.3,-1.55,-36.79,-37.03,0,*50
1483268595.25,54150,10.94,73540.8,-1.55,-36.67,-37.15,0,*50
1483268596.53,54151,10.94,73546.5,-1.53,-36.61,-37.09,0,*5C
1483268597.77,54152,10.94,73542.0,-1.51,-36.73,-37.09,0,*5E
1483268598.99,54153,10.94,73536.5,-1.51,-36.79,-37.33,0,*5C
1483268600.23,54154,10.94,73540.5,-1.51,-36.91,-37.15,0,*59
1483268601.51,54155,10.94,73538.5,-1.49,-36.49,-36.91,0,*59
1483268602.76,54156,10.94,73546.5,-1.49,-36.49,-37.03,0,*50
1483268604.02,54157,10.94,73542.0,-1.49,-37.45,-37.81,0,*56
1483268605.28,54158,10.94,73530.8,-1.49,-37.87,-38.23,0,*50
1483268606.54,54159,10.94,73532.3,-1.49,-37.81,-38.17,0,*50
1483268607.8,54160,10.94,73536.3,-1.49,-37.99,-38.35,0,*53
1483268609.06,54161,10.94,73530.3,-1.47,-37.45,-37.81,0,*5D
1483268610.3,54162,10.94,73528.3,-1.49,-37.57,-37.87,0,*55
1483268611.56,54163,10.94,73530.3,-1.49,-37.03,-37.39,0,*50
1483268612.82,54164,10.94,73528.8,-1.47,-36.73,-37.09,0,*5C
1483268614.08,54165,10.94,73538.3,-1.47,-36.67,-37.09,0,*58
1483268615.32,54166,10.94,73538.5,-1.45,-37.51,-37.75,0,*56
1483268616.58,54167,10.94,73538.5,-1.45,-38.11,-38.67,0,*50
1483268617.84,54168,10.94,73538.8,-1.45,-37.39,-37.81,0,*5D
1483268619.1,54169,10.94,73538.0,-1.43,-36.55,-36.79,0,*57
1483268620.38,54170,10.94,73532.0,-1.43,-36.37,-36.79,0,*5B
1483268621.67,54171,10.94,73528.8,-1.43,-36.61,-37.09,0,*5F
1483268622.9,54172,10.94,73532.0,-1.41,-36.61,-36.97,0,*58
1483268624.13,54173,10.94,73534.8,-1.41,-36.43,-36.91,0,*5F
1483268625.37,54174,10.94,73534.0,-1.39,-36.31,-36.55,0,*5A
1483268626.62,54175,10.94,73538.8,-1.39,-36.37,-36.85,0,*50
1483268627.86,54176,10.94,73540.0,-1.35,-36.31,-36.67,0,*55
1483268629.09,54177,10.94,73540.0,-1.31,-36.31,-36.67,0,*50
1483268630.35,54178,10.94,73536.0,-1.31,-36.43,-36.79,0,*55
1483268631.6,54179,10.94,73542.3,-1.31,-36.49,-36.85,0,*5D
1483268632.8,54180,10.94,73542.5,-1.29,-36.55,-36.97,0,*5C
1483268634.01,54181,10.94,73542.8,-1.29,-37.27,-37.57,0,*54
1483268635.24,54182,10.94,73542.5,-1.29,-37.51,-37.87,0,*5B
1483268636.47,54183,10.94,73538.3,-1.29,-37.75,-38.11,0,*5C
1483268637.7,54184,10.94,73538.3,-1.29,-37.75,-38.23,0,*5A
1483268638.91,54185,10.94,73538.8,-1.29,-38.05,-38.43,0,*55
1483268640.16,54186,10.94,73538.0,-1.29,-37.69,-38.11,0,*54
1483268641.39,54187,10.94,73538.5,-1.29,-36.91,-37.15,0,*58
1483268642.65,54188,10.94,73542.3,-1.27,-36.73,-37.09,0,*58
1483268643.89,54189,10.94,73538.3,-1.27,-36.73,-36.97,0,*5F
1483268645.14,54190,10.94,73542.0,-1.27,-36.55,-37.09,0,*55
1483268646.37,54191,10.94,73540.8,-1.25,-36.91,-37.27,0,*52
1483268647.62,54192,10.94,73542.3,-1.23,-37.51,-38.05,0,*55
1483268648.85,54193,10.94,73544.5,-1.25,-37.81,-38.05,0,*5F
1483268650.14,54194,10.94,73548.3,-1.23,-37.69,-37.99,0,*52
1483268651.42,54195,10.94,73546.8,-1.23,-37.69,-37.99,0,*53
1483268652.63,54196,10.94,73542.3,-1.25,-37.45,-37.87,0,*57
1483268653.86,54197,10.94,73534.0,-1.25,-37.45,-37.81,0,*50
1483268655.08,54198,10.94,73530.0,-1.25,-37.45,-37.81,0,*5F
1483268656.31,54199,10.94,73516.5,-1.25,-37.69,-38.17,0,*50
1483268657.54,54200,10.94,73528.0,-1.25,-37.45,-37.81,0,*5D
1483268658.76,54201,10.94,73538.5,-1.25,-36.91,-37.27,0,*58
1483268660.02,54202,10.94,73546.5,-1.23,-37.27,-37.51,0,*50
1483268661.28,54203,10.94,73546.3,-1.23,-37.99,-38.35,0,*59
1483268662.54,54204,10.94,73546.0,-1.23,-38.17,-38.49,0,*5C
1483268663.77,54205,10.94,73536.8,-1.25,-37.99,-38.35,0,*59
1483268665.04,54206,10.94,73532.5,-1.23,-37.81,-38.17,0,*55
1483268666.32,54207,10.94,73534.8,-1.23,-37.51,-37.99,0,*50
1483268667.57,54208,10.94,73542.5,-1.23,-37.69,-38.05,0,*5E
1483268668.83,54209,10.94,73526.0,-1.23,-38.23,-38.61,0,*5C
1483268670.06,54210,10.94,73526.8,-1.25,-37.99,-38.35,0,*5D
1483268671.29,54211,10.94,73522.8,-1.23,-38.17,-38.43,0,*52
1483268672.52,54212,10.94,73516.5,-1.25,-37.69,-38.17,0,*50
1483268673.78,54213,10.94,73520.0,-1.25,-37.21,-37.51,0,*50
1483268675.04,54214,10.94,73524.3,-1.23,-36.91,-37.27,0,*5A
1483268676.24,54215,10.94,73534.5,-1.21,-37.03,-37.27,0,*53
1483268677.49,54216,10.94,73536.8,-1.19,-37.09,-37.33,0,*54
1483268678.72,54217,10.94,73538.5,-1.19,-37.15,-37.57,0,*5A
1483268679.95,54218,10.94,73536.3,-1.21,-37.21,-37.57,0,*59
1483268681.21,54219,10.94,73532.8,-1.19,-37.09,-37.33,0,*5B
1483268682.46,54220,10.94,73532.8,-1.19,-36.61,-36.97,0,*51
1483268683.67,54221,10.94,73534.5,-1.15,-36.31,-36.85,0,*5A
1483268684.9,54222,10.94,73536.0,-1.17,-36.73,-37.09,0,*58
1483268686.14,54223,10.94,73538.3,-1.15,-36.79,-37.15,0,*5C
1483268687.37,54224,10.94,73538.3,-1.15,-36.49,-36.85,0,*50
1483268688.58,54225,10.94,73544.5,-1.15,-36.55,-37.03,0,*53
1483268689.82,54226,10.94,73544.0,-1.13,-36.55,-37.03,0,*56
1483268691.09,54227,10.94,73544.3,-1.13,-37.15,-37.63,0,*54
1483268692.32,54228,10.94,73538.0,-1.13,-37.03,-37.33,0,*59
1483268693.53,54229,10.94,73538.0,-1.11,-36.67,-37.03,0,*5A
1483268694.74,54230,10.94,73536.0,-1.11,-37.45,-37.75,0,*52
1483268695.97,54231,10.94,73536.5,-1.11,-37.45,-37.93,0,*5B
1483268697.17,54232,10.94,73530.5,-1.11,-37.03,-37.27,0,*55
1483268698.41,54233,10.94,73528.8,-1.07,-37.09,-37.57,0,*5E
1483268699.66,54234,10.94,73516.5,-1.07,-37.21,-37.57,0,*53
1483268700.91,54235,10.94,73514.8,-1.05,-36.79,-37.15,0,*5A
1483268702.17,54236,10.94,73516.3,-1.05,-36.43,-36.79,0,*5B
1483268703.4,54237,10.94,73520.5,-1.07,-36.49,-36.97,0,*52
1483268704.67,54238,10.94,73524.3,-1.05,-36.25,-36.73,0,*5F
1483268705.92,54239,10.94,73534.3,-1.05,-36.37,-36.73,0,*5D
1483268707.16,54240,10.94,73540.0,-1.03,-36.25,-36.73,0,*56
1483268708.42,54241,10.94,73546.3,-1.01,-36.37,-36.85,0,*5F
1483268709.66,54242,10.94,73542.3,-1.01,-36.85,-37.15,0,*5D
1483268710.89,54243,10.94,73544.5,-0.99,-37.15,-37.63,0,*65
1483268712.15,54244,10.94,73544.8,-0.97,-36.85,-37.09,0,*68
1483268713.38,54245,10.94,73540.8,-0.99,-37.81,-38.05,0,*61
1483268714.61,54246,10.94,73546.5,-1.01,-37.45,-37.87,0,*5F
1483268715.88,54247,10.94,73550.8,-1.01,-37.87,-38.11,0,*50
1483268717.08,54248,10.94,73548.8,-0.99,-37.45,-37.87,0,*61
1483268718.3,54249,10.94,73544.8,-0.99,-37.33,-37.69,0,*61
1483268719.53,54250,10.94,73540.0,-0.99,-37.27,-37.81,0,*6A
1483268720.79,54251,10.94,73538.8,-0.97,-37.09,-37.57,0,*62
1483268722.01,54252,10.94,73532.5,-0.99,-37.15,-37.69,0,*6F
1483268723.26,54253,10.94,73534.3,-0.97,-37.57,-37.99,0,*69
1483268724.52,54254,10.94,73524.0,-0.99,-37.51,-37.99,0,*66
1483268725.75,54255,10.94,73524.3,-0.99,-37.15,-37.51,0,*63
1483268727.01,54256,10.94,73522.3,-0.97,-36.67,-37.09,0,*67
1483268728.26,54257,10.94,73516.0,-0.97,-36.61,-37.03,0,*6A
1483268729.53,54258,10.94,73516.8,-0.97,-36.49,-36.91,0,*65
1483268730.76,54259,10.94,73524.0,-0.93,-36.43,-36.85,0,*6F
1483268731.96,54260,10.94,73538.8,-0.95,-36.43,-36.73,0,*6A
1483268733.21,54261,10.94,73546.8,-0.93,-36.79,-37.33,0,*61
1483268734.44,54262,10.94,73538.8,-0.95,-36.85,-37.39,0,*6D
1483268735.69,54263,10.94,73542.5,-0.93,-36.85,-37.21,0,*63
1483268736.93,54264,10.94,73546.3,-0.91,-36.73,-37.09,0,*65
1483268738.15,54265,10.94,73546.8,-0.91,-36.55,-36.91,0,*60
1483268739.4,54266,10.94,73544.5,-0.91,-36.37,-36.79,0,*61
1483268740.63,54267,10.94,73542.5,-0.89,-36.19,-36.55,0,*6B
1483268741.9,54268,10.94,73544.0,-0.89,-36.13,-36.49,0,*63
1483268743.17,54269,10.94,73542.5,-0.85,-36.25,-36.49,0,*6B
1483268744.42,54270,10.94,73540.3,-0.85,-36.49,-36.73,0,*60
1483268745.68,54271,10.94,73546.8,-0.83,-36.37,-36.67,0,*6B
1483268746.91,54272,10.94,73546.0,-0.83,-36.43,-36.85,0,*67
1483268748.17,54273,10.94,73546.8,-0.83,-36.97,-37.39,0,*69
1483268749.4,54274,10.94,73538.5,-0.81,-37.15,-37.51,0,*69
1483268750.61,54275,10.94,73540.8,-0.81,-36.43,-36.85,0,*62
1483268751.83,54276,10.94,73544.3,-0.79,-36.97,-37.33,0,*63
1483268753.08,54277,10.94,73538.0,-0.79,-37.45,-37.69,0,*63
1483268754.36,54278,10.94,73540.0,-0.79,-37.09,-37.51,0,*6F
1483268755.6,54279,10.94,73542.5,-0.79,-36.73,-37.15,0,*62
1483268756.83,54280,10.94,73538.8,-0.79,-36.73,-37.15,0,*64
1483268758.08,54281,10.94,73528.3,-0.79,-36.91,-37.33,0,*6D
1483268759.31,54282,10.94,73534.8,-0.79,-36.97,-37.45,0,*69
1483268760.54,54283,10.94,73542.8,-0.77,-36.73,-37.09,0,*64
1483268761.77,54284,10.94,73542.8,-0.75,-36.55,-37.03,0,*6F
1483268762.96,54285,10.94,73536.8,-0.77,-36.97,-37.45,0,*60
1483268764.22,54286,10.94,73532.0,-0.75,-36.49,-37.03,0,*60
1483268765.48,54287,10.94,73534.3,-0.75,-36.25,-36.55,0,*69
1483268766.71,54288,10.94,73538.5,-0.75,-36.31,-36.67,0,*62
1483268767.91,54289,10.94,73540.0,-0.73,-36.43,-36.85,0,*6C
1483268769.16,54290,10.94,73546.8,-0.71,-36.37,-36.67,0,*69
1483268770.38,54291,10.94,73548.3,-0.73,-37.27,-37.69,0,*65
1483268771.65,54292,10.94,73542.8,-0.71,-36.79,-37.21,0,*62
1483268772.88,54293,10.94,73546.3,-0.73,-36.91,-37.57,0,*66
1483268774.16,54294,10.94,73546.3,-0.71,-37.39,-37.63,0,*67
1483268775.38,54295,10.94,73546.3,-0.71,-37.15,-37.57,0,*6F
1483268776.61,54296,10.94,73548.5,-0.71,-37.75,-38.17,0,*61
1483268777.88,54297,10.94,73542.0,-0.71,-37.99,-38.49,0,*69
1483268779.08,54298,10.94,73538.0,-0.73,-38.05,-38.61,0,*64
1483268780.3,54299,10.94,73538.8,-0.73,-37.69,-38.17,0,*61
1483268781.53,54300,10.94,73538.3,-0.73,-37.45,-37.81,0,*6E
1483268782.77,54301,10.94,73536.8,-0.73,-36.79,-37.21,0,*6B
1483268784.05,54302,10.94,73538.0,-0.71,-36.61,-37.21,0,*63
1483268785.3,54303,10.94,73536.5,-0.71,-36.49,-37.03,0,*68
1483268786.55,54304,10.94,73538.8,-0.71,-36.37,-36.97,0,*6A
1483268787.77,54305,10.94,73540.5,-0.69,-36.49,-36.85,0,*68
1483268789.04,54306,10.94,73546.0,-0.67,-36.37,-36.79,0,*6F
1483268790.27,54307,10.94,73540.5,-0.69,-36.61,-37.15,0,*68
1483268791.53,54308,10.94,73536.5,-0.67,-36.55,-37.09,0,*63
1483268792.8,54309,10.94,73538.0,-0.63,-36.37,-36.91,0,*62
1483268794.01,54310,10.94,73530.3,-0.61,-36.31,-36.73,0,*62
1483268795.21,54311,10.94,73526.0,-0.61,-36.31,-36.73,0,*63
1483268796.44,54312,10.94,73524.5,-0.61,-36.67,-37.09,0,*6F
1483268797.67,54313,10.94,73530.0,-0.61,-36.73,-37.21,0,*61
1483268798.87,54314,10.94,73528.5,-0.61,-36.31,-36.67,0,*63
1483268800.1,54315,10.94,73532.3,-0.61,-36.31,-36.91,0,*6B
1483268801.35,54316,10.94,73532.3,-0.57,-36.25,-36.61,0,*67
1483268802.58,54317,10.94,73532.3,-0.57,-36.07,-36.49,0,*6C
1483268803.78,54318,10.94,73534.8,-0.57,-36.01,-36.31,0,*6A
1483268805.06,54319,10.94,73538.3,-0.55,-35.83,-36.25,0,*65
1483268806.33,54320,10.94,73544.3,-0.55,-36.37,-36.79,0,*6A
1483268807.57,54321,10.94,73544.8,-0.55,-36.79,-37.33,0,*6E
1483268808.8,54322,10.94,73548.3,-0.53,-36.55,-36.91,0,*6C
1483268810.02,54323,10.94,73542.5,-0.53,-36.37,-36.97,0,*6F
1483268811.25,54324,10.94,73544.8,-0.53,-36.25,-36.73,0,*61
1483268812.48,54325,10.94,73546.5,-0.53,-36.25,-36.73,0,*60
1483268813.7,54326,10.94,73540.5,-0.51,-36.31,-36.85,0,*6D
1483268814.94,54327,10.94,73540.5,-0.49,-36.73,-37.21,0,*6C
1483268816.17,54328,10.94,73538.8,-0.49,-36.85,-37.21,0,*6A
1483268817.4,54329,10.94,73538.3,-0.49,-36.37,-36.85,0,*6D
1483268818.65,54330,10.94,73536.3,-0.51,-36.37,-37.03,0,*63
1483268819.86,54331,10.94,73538.5,-0.49,-36.19,-36.73,0,*61
1483268821.13,54332,10.94,73534.8,-0.47,-36.25,-36.79,0,*69
1483268822.33,54333,10.94,73536.8,-0.45,-36.31,-36.85,0,*6C
1483268823.55,54334,10.94,73538.0,-0.45,-36.61,-36.97,0,*6D
1483268824.78,54335,10.94,73536.3,-0.45,-36.61,-37.03,0,*60
1483268825.99,54336,10.94,73536.8,-0.45,-36.67,-37.15,0,*62
1483268827.21,54337,10.94,73534.3,-0.45,-36.79,-37.27,0,*6D
1483268828.46,54338,10.94,73536.5,-0.43,-36.61,-36.97,0,*67
1483268829.68,54339,10.94,73542.8,-0.43,-36.07,-36.73,0,*6C
1483268830.91,54340,10.94,73542.8,-0.39,-36.67,-37.15,0,*68
1483268832.14,54341,10.94,73548.3,-0.39,-37.03,-37.45,0,*6F
1483268833.41,54342,10.94,73556.5,-0.39,-37.09,-37.69,0,*68
1483268834.69,54343,10.94,73552.3,-0.39,-37.69,-38.23,0,*6E
1483268835.92,54344,10.94,73548.0,-0.43,-37.87,-38.35,0,*63
1483268837.17,54345,10.94,73542.5,-0.43,-37.57,-38.11,0,*69
1483268838.43,54346,10.94,73536.0,-0.39,-37.15,-37.63,0,*6B
1483268839.71,54347,10.94,73528.5,-0.39,-37.09,-37.51,0,*66
1483268840.97,54348,10.94,73528.8,-0.39,-37.03,-37.51,0,*63
1483268842.22,54349,10.94,73530.3,-0.39,-36.91,-37.27,0,*69
1483268843.44,54350,10.94,73530.3,-0.39,-37.03,-37.45,0,*6F
1483268844.66,54351,10.94,73524.5,-0.39,-36.85,-37.27,0,*65
1483268845.86,54352,10.94,73520.8,-0.37,-37.03,-37.33,0,*62
1483268847.09,54353,10.94,73516.0,-0.37,-36.73,-37.09,0,*6C
1483268848.32,54354,10.94,73530.8,-0.37,-36.49,-37.03,0,*68
1483268849.54,54355,10.94,73530.8,-0.37,-36.37,-36.85,0,*6F
1483268850.82,54356,10.94,73536.0,-0.35,-36.49,-36.79,0,*64
1483268852.02,54357,10.94,73534.8,-0.33,-36.97,-37.45,0,*6E
1483268853.23,54358,10.94,73522.8,-0.33,-36.97,-37.57,0,*62
1483268854.48,54359,10.94,73508.8,-0.31,-36.25,-36.73,0,*6F
1483268855.69,54360,10.94,73518.5,-0.33,-36.43,-36.97,0,*6D
1483268856.94,54361,10.94,73536.0,-0.33,-36.79,-37.21,0,*69
1483268858.17,54362,10.94,73536.8,-0.31,-36.73,-37.15,0,*65
1483268859.4,54363,10.94,73532.0,-0.31,-36.55,-37.03,0,*67
1483268860.63,54364,10.94,73536.0,-0.31,-36.73,-37.03,0,*64
1483268861.86,54365,10.94,73534.3,-0.31,-36.43,-36.97,0,*6A
1483268863.1,54366,10.94,73528.0,-0.29,-37.15,-37.63,0,*68
1483268864.3,54367,10.94,73534.5,-0.29,-37.27,-37.87,0,*62
1483268865.51,54368,10.94,73532.5,-0.29,-37.45,-37.87,0,*69
1483268866.74,54369,10.94,73530.3,-0.29,-36.91,-37.33,0,*6F
1483268867.94,54370,10.94,73532.8,-0.29,-36.85,-37.33,0,*62
1483268869.17,54371,10.94,73528.8,-0.27,-36.85,-37.33,0,*6D
1483268870.39,54372,10.94,73532.0,-0.27,-36.55,-36.97,0,*6C
1483268871.61,54373,10.94,73536.8,-0.27,-36.31,-36.85,0,*6C
1483268872.84,54374,10.94,73542.5,-0.27,-36.85,-37.33,0,*68
1483268874.12,54375,10.94,73542.5,-0.27,-37.63,-38.23,0,*6E
1483268875.35,54376,10.94,73538.5,-0.25,-37.93,-38.43,0,*66
1483268876.6,54377,10.94,73540.0,-0.29,-38.11,-38.79,0,*67
1483268877.83,54378,10.94,73538.0,-0.27,-37.87,-38.43,0,*6F
1483268879.09,54379,10.94,73536.0,-0.29,-37.51,-37.99,0,*63
1483268880.32,54380,10.94,73536.5,-0.29,-37.33,-37.99,0,*61
1483268881.55,54381,10.94,73532.5,-0.29,-37.27,-37.69,0,*6A
1483268882.8,54382,10.94,73532.3,-0.27,-37.45,-37.99,0,*6C
1483268884.02,54383,10.94,73534.0,-0.27,-36.97,-37.45,0,*62
1483268885.24,54384,10.94,73532.0,-0.27,-36.73,-37.27,0,*6B
1483268886.47,54385,10.94,73542.0,-0.27,-36.73,-37.27,0,*6A
1483268887.69,54386,10.94,73546.3,-0.25,-36.97,-37.69,0,*6B
1483268888.92,54387,10.94,73538.5,-0.25,-38.35,-38.91,0,*64
1483268890.12,54388,10.94,73528.8,-0.29,-38.97,-39.65,0,*65
1483268891.32,54389,10.94,73540.8,-0.29,-38.43,-38.97,0,*61
1483268892.55,54390,10.94,73536.3,-0.29,-38.05,-38.67,0,*64
1483268893.8,54391,10.94,73530.3,-0.29,-38.11,-38.67,0,*60
1483268895.06,54392,10.94,73518.8,-0.29,-37.51,-37.99,0,*66
1483268896.29,54393,10.94,73512.5,-0.31,-37.03,-37.75,0,*6B